Погода в Калаче

Погода в Калаче : погода сейчас, прогноз погоды и архив. Всё, что Вы хотите узнать о погоде в Калаче!

Поиск расширенной информации на нашем сайте:

Другие новости

Новости СМИ2

Главная страница сайта

Новости сайта

02.10.2013

Напоминаем, что на нашем новом сайте вы можете получить высокодетализированные прогнозы погоды по пунктам России, СНГ и мира (включающие важные для авиации метеовеличины, такие как направление и скорость ветра, видимость, явления погоды, количество и форма облачности, нижняя и верхняя граница облачности), а также ознакомиться с разнообразными материалами по авиационной метеорологии и подборкой полезных ссылок на эту тему.

Сайт Метеоцентр.Азия посвящён разработке технологий оптимизации авиаметеорологического обслуживания, включая проектирование и перспективное создание нескольких автоматизированных авиаметеорологических систем:
- система выпуска высокодетальных прогностических карт явлений погоды для нижнего воздушного пространства по России и ближнему зарубежью;
- система верификации прогнозов TAF (выпускаемых синоптиками официальных АМСГ РФ и ближнего зарубежья) и AUTOTAF (выпускаемых сайтом Метеоцентр.Азия) - выявление ошибок, онлайн-сопоставление с фактической погодой METAR, автоматическое внесение коррективов в прогнозы при резком отклонении фактической погоды от прогноза, подсчёт оправдываемости прогнозов по элементам и в целом;
- система обработки, анализа и отображения авиаметеорологической информации для применения провайдерами метеорологической информации.

Рекомендуем: Туристический портал http://touroid.ru

Погода в Калаче - сегодня

Время (UTC), дата Ветер
(°,м/с) 
Видим.   Явления Облачность Т
(°С)
Тd
(°С)
f(%) Тe
(°С)
Pmin
(гПа)
dP
(гПа)
Po
(мм)
O2
(г/м3)
Тmin Tmax R s Состояние
почвы
00 25.04.17 340 (С) 10 км    10/10 600 м 
[Sc]
+5.7 -0.3 65 +5  1013.2  0.2  751  297           
03 25.04.17 310 (СЗ) 10 км    8/0 верхняя 
[Cs]
+3.4 -1.8 69 +4  1016.3  3.2  754  300  +3.3        влажная 
06 25.04.17 340 (С) 20000 м    3/0 верхняя 
[Ci fib]
+8.1 -2 49 +7  1019.4  3.1  756  296  +3         
09 25.04.17 280 (З) 20000 м    9/9 600 м 
[Cu Sc]
+11.4 -5.1 31 +10  1020.9  1.6  757  293           
12 25.04.17 300 (СЗ) 4{12}  20000 м    8/8 600 м 
[Cu Sc]
+12.5 -9.3 21 +12  1021.5  0.6  758  293           
15 25.04.17 290 (З) 20000 м    5/5 600 м 
[Cu Sc]
+12.2 -9.5 21 +12  1022.3  0.8  758  293    +14       
18 25.04.17 210 (ЮЗ) 10 км    8/3 2000 м средняя, верхняя 
[Ac trans|Ci fib]
+7.3 -4.8 42 +7  1024  1.6  760  299           
21 25.04.17 210 (ЮЗ) 10 км    8/8 2000 м средняя 
[Ac trans]
+5 -3.3 55 +5  1024.9  0.9  760  301           
00 26.04.17 220 (ЮЗ) 10 км    4/0 верхняя 
[Ci fib]
+2.8 -1.4 74 +4  1026.1  761  304           
03 26.04.17 тихо ()   10 км    9/9 2000 м средняя 
[Ac trans]
+2.9 -0.1 81 +3  1027.2  1.1  762  304  +0.9        сухая 
06 26.04.17 210 (ЮЗ) 10 км    10/10 2000 м 
[Ac trans]
+8 +2 66 +7  1028  0.9  762  298           
09 26.04.17 220 (ЮЗ) 5{12}  20000 м    4/3 600 м верхняя 
[Cu hum|Ci fib]
+14.4 +1.9 43 +14  1027.7  762  292           
12 26.04.17 230 (ЮЗ) 7-12{14}  20000 м    6/3 600 м верхняя 
[Cu hum|Ci fib]
+16.6 +0.5 34 +16  1026.4  -1.2  762  289           
15 26.04.17 220 (ЮЗ) 5-10{13}  20000 м    3/0 верхняя 
[Ci fib]
+16.1 +0.3 34 +16  1025.4  -1.1  761  289    +17.4       
18 26.04.17 210 (ЮЗ) 3{11}  10 км    4/0 верхняя 
[Ci fib]
+10.7 +1.4 53 +10  1026.3  0.8  761  295           
21 26.04.17 220 (ЮЗ) 10 км    ясно 
+7.6 +2 68 +8  1027.3  0.8  762  298           
00 27.04.17 210 (ЮЗ) 10 км    ясно 
+4.5 +1.5 81 +5  1027.9  0.5  762  302           
03 27.04.17 170 (Ю) 10 км    3/0 верхняя 
[Ci fib]
+3.8 +0.7 80 +5  1028.4  0.4  763  303  +0.9        сухая 
06 27.04.17 210 (ЮЗ) 6-11{11}  20000 м    4/0 верхняя 
[Ci fib]
+12.7 +1.5 46 +12  1027.8  -0.2  762  293           
09 27.04.17 190 (Ю) 6-11{12}  20000 м    3/0 верхняя 
[Ci fib]
+17.8 -3.4 23 +18  1027  -0.6  762  289           
12 27.04.17 190 (Ю) 7-11{13}  20000 м    8/0 верхняя 
[Ci fib]
+19.7 -3.7 20 +20  1025.6  -1.3  761  286           
15 27.04.17 190 (Ю) 6-10{12}  20000 м    8/0 верхняя 
[Ci fib]
+19.1 -4.1 20 +19  1024.6  -1  760  287    +20.6       
18 27.04.17 180 (Ю) 10 км    3/0 верхняя 
[Ci fib]
+13.4 +0 40 +13  1025.2  0.4  761  292           
21 27.04.17 290 (З) 10 км    ясно 
+8.7 +2.3 64 +10  1025.8  0.4  761  297           
00 28.04.17 тихо ()   10 км    ясно 
+6.3 +2.1 74 +6  1026.3  0.3  761  299           
Время (UTC), дата Ветер
(°,м/с) 
Видим.   Явления Облачность Т
(°С)
Тd
(°С)
f(%) Тe
(°С)
Pmin
(гПа)
dP
(гПа)
Po
(мм)
O2
(г/м3)
Тmin Tmax R s Состояние
почвы

Для получения пояснительной информации подведите курсор к названию столбца.

ПОГОДА в Калаче - архив

Всё, что Вы хотите узнать о погоде в Калаче - удобно и подробно!

Выберите нужную дату (начиная с 1 января 2015* года) и нажмите кнопку "Найти".
Будут отображены архивные сводки погоды по пункту Калач, начиная с указанной даты.


Отображать данные в формате CSV (для использования в таблицах Excel)


Внимание! Наш архив погоды предназначен исключительно для личного некоммерческого использования в познавательных целях. Если Вам необходимы официальные справки о состоянии погоды (для производственных, юридических, коммерческих и т.п. целей), обращайтесь в органы Росгидромета.

*Примечание: данная дата относится к архиву по метеостанциям СССР (Россия, СНГ, Балтия).
Архив по метеостанциям Зарубежной Европы и Азии (кроме Китая) хранится 10 дней, по другим регионам земного шара (Китай, Африка, Америка, Австралия, Океания) - 1 день.

Калач - район местоположения метеостанции


Название, широта, долгота, высота метеостанции:
Калач 50.4°ш. 41.1°д. 92 м над ур. моря [Российская Федерация]

Дополнительная информация

В oтличие oт бoльшинства пoгoдных сайтoв мы публикуем пoдрoбную метеoинфoрмацию в детальнoм прoфессиoнальнoм фoрмате.

Характеристики температуры и влажнoсти вoздуха измеряются на высoте 2 м в тени вдали oт зданий и деревьев.
Скoрoсть ветра измеряется на высoте 10 м (на урoвне рoста челoвека скoрoсть ветра ниже в 1.5-2 раза). Если метеoстанция нахoдится в гoрoде или в лесу, тo скoрoсть ветра занижена на 2-4 м/с пo сравнению с oткрытым местoм. Скoрoсть ветра над акватoриями крупных рек и oзёр, а также на вершинах хoлмoв на 2-5 м/с выше, чем в oбычных услoвиях.
Атмoсфернoе давление в разных тoчках местнoсти мoжет значительнo oтличаться oт давления на метеoстанции, в зависимoсти oт услoвий рельефа (при пoдъёме на 10 м давление пoнижается примернo на 1 мм рт.ст.).